Voltar ao catálogo

SL-12 R/B(2)

AtivoGEO
NORAD 22248·ROCKET BODY·🇷🇺 Russia

Lançado Nov 27, 1992 de Baikonur Cosmodrome

Loading…

TLE

AtualizadoSource: Space-Track

Época: Aug 27, 2026, 21:45 UTC

1 22248U 92082D   26239.90677328 -.00000054  00000-0  00000+0 0  9992
2 22248  14.6560 346.6451 0007439 114.1825 248.8619  0.98022228120831

Acompanhe SL-12 R/B(2) em tempo real com AllMySat

Download on the App Store